Weather in Itaquaquecetuba

Brazil     23°29′09″S   46°22′19″W
temp.,
°C
wind,
m/s
gust,
m/s
humid.,
%
clouds,
%
prec.,
mm/h
press.,
hPa
HPBL,
m
20 january, thu
thu2000:00+19ene119818 0.1 101826
03:00+18ne129814 0.1 101645
06:00+17ne12974 0.0 101742
09:00+24ne11690 0.0 1017449
12:00+31sse01450 0.0 10151639
15:00+30sse334551 0.1 10132260
18:00+23ne128720 3.3 101484
21:00+20sse229682 3.6 101675
21 january, fri
fri2100:00+18e11965 0.0 101624
03:00+18ne119935 0.0 101438
06:00+17e119814 0.0 101523
09:00+24ese12731 0.0 1016641
12:00+29sse21465 0.0 10141811
15:00+29s42461 0.0 10121933
18:00+23sse46813 0.0 1013547
21:00+19ese149748 0.0 1015167
22 january, sat
sat2200:00+20e129577 0.0 101593
03:00+18ene139770 0.0 1014114
06:00+19ene259499 0.0 1014265
09:00+22nne238064 0.0 1016575
12:00+30ssw035018 0.1 10131724
15:00+25se467647 0.3 1012389
18:00+23sse35843 0.5 1012397
21:00+20ese129716 0.6 101560
23 january, sun
sun2300:00+19ne239714 0.0 101590
03:00+19ne259940 0.0 1013161
06:00+19ne139966 0.0 1014108
09:00+26n11700 0.0 1015545
12:00+31wsw124983 0.3 10131830
15:00+26ese237976 0.9 1012191
18:00+25se238174 0.8 1012131
21:00+21ese11946 1.2 101335
24 january, mon
mon2400:00+20ne22960 0.0 101450
03:00+19ne129823 0.0 101265
06:00+19ene119820 0.0 101327
09:00+26nne11730 0.0 1014512
12:00+31sw21450 0.1 10122012
15:00+32sse33413 0.1 10092092
18:00+25se36811 0.6 1010313
21:00+21e11930 0.7 101236